Regional Weather Roundup
Issued by NWS Wakefield, VA

Home | Current Version | Previous Version | Text Only | Print | Product List | Glossary Off
Versions: 1 2 3 4 5 6 7 8 9 10 11 12 13 14 15 16 17 18 19 20 21 22 23 24 25 26 27 28 29 30 31 32 33 34 35 36 37 38 39 40 41 42 43 44 45 46 47 48 49 50

000
ASUS41 KAKQ 311115
RWRAKQ

REGIONAL WEATHER ROUNDUP
NATIONAL WEATHER SERVICE WAKEFIELD VA
700 AM EDT FRI JUL 31 2015

Note: "fair" indicates few or no clouds below 12,000 feet with no
significant weather and/or obstructions to visibility. * = Denotes
station may not report precipitation (e.g., rain,snow,etc.),
thunder or fog.

VAZ042-051-052>054-056-311200-
NORTHERN VIRGINIA

CITY           SKY/WX    TMP DP  RH WIND       PRES   REMARKS
WASH NATIONAL  PTCLDY    76  62  62 NW8       29.94R
DULLES         PTCLDY    65  61  87 CALM      29.95R
FORT BELVOIR   CLEAR     66  64  92 NW3       29.94R
QUANTICO       PTCLDY    71  62  73 W2        29.95
FREDERICKSBRG* CLEAR     67  67 100 CALM      29.94R
STAFFORD*      CLEAR     67  60  79 NW8       29.99R
WARRENTON      CLEAR     63  63 100 CALM      29.95S
CULPEPER*      CLEAR     62  61  99 CALM      29.97R
MANASSAS*      CLEAR     64  63  94 CALM      29.96R
LEESBURG*      CLEAR     70  63  78 CALM      29.97R
WINCHESTER     CLEAR     66  59  77 W3        29.98R
FRONT ROYAL*   FAIR      63  59  88 S3        29.97S
LURAY*         FAIR      63  63 100 S3        30.01R
$$

VAZ048-049-060>072-079>083-311200-
CENTRAL AND SOUTH CENTRAL VIRGINIA

CITY           SKY/WX    TMP DP  RH WIND       PRES   REMARKS
RICHMOND       PTCLDY    75  64  68 N10       29.93R
CHESTERFIELD*  FAIR      75  55  50 N7        29.95R
PETERSBURG*    MOCLDY    74  74 100 NW3       29.95R
HANOVER        PTCLDY    71  64  78 VRB3      29.96R
TAPPAHANNOCK*  CLEAR     70  65  82 CALM      29.94R
QUINTON*       CLOUDY    73  64  73 N6        29.92R
CHARLOTTSVILLE CLEAR     65  60  84 S5        29.98R
GORDONSVILLE*  FAIR      64  63  94 CALM      29.97R
ORANGE*        CLEAR     64  63  94 W3        29.98S
LOUISA*        CLEAR     70  63  78 N3        29.96R
BUMPASS*       FAIR      66  65  96 CALM      29.96R
FARMVILLE*     CLEAR     68  68 100 CALM      29.96S
CREWE*         PTSUNNY  N/A N/A N/A NW5       29.95R
FORT PICKETT*  CLOUDY    72  67  85 NW6       29.96R
CHASE CITY*    CLOUDY    73  70  89 NW3       29.97R
CLARKSVILLE*   FAIR      72  66  83 N7        29.96R
SOUTH HILL*    CLEAR     69  68  98 N6        30.01R
LAWRENCEVILLE* PTSUNNY   72  72 100 N3        29.94S
EMPORIA*       PTCLDY    70  70 100 CALM      29.94S
$$

VAZ088>098-311200-
SOUTHEAST VIRGINIA

CITY           SKY/WX    TMP DP  RH WIND       PRES   REMARKS
NORFOLK        PTCLDY    75  72  90 NE6       29.90R
VIRGINIA BEACH MOCLDY    76  72  87 N6        29.89S
NORFOLK NAVAL  PTCLDY    75  73  93 CALM      29.91R FOG
WEST POINT*    CLEAR     74  71  88 NW6       29.93R
SALUDA*        FAIR      74  70  89 NW7       29.91R
NEWPORT NEWS   CLEAR     74  72  93 W5        29.91R
LANGLEY AFB    PTCLDY    74  73  96 CALM      29.91R
FORT EUSTIS    CLEAR     73  73 100 N3        29.90R
WILLIAMSBURG*    N/A     75  75 100 CALM      29.93R VSB 1
HR EXEC AP*    FAIR      75  72  88 CALM      29.92S
FRANKLIN*      PTCLDY    72  71  96 CALM      29.92R
WAKEFIELD      PTCLDY    72  70  93 CALM      29.92R FOG
$$

VAZ020-022-025-037-045-311200-
WEST CENTRAL AND SOUTHWEST VIRGINIA

CITY           SKY/WX    TMP DP  RH WIND       PRES   REMARKS
STAUNTON*      CLEAR     60  58  92 CALM      30.05R
WAYNESBORO*    FAIR      59  58  96 S6        30.03S
HOT SPRINGS VA CLEAR     60  56  84 NW5       30.13R
LYNCHBURG      CLEAR     68  59  73 N3        30.01R
DANVILLE       CLEAR     70  62  76 NW5       29.99R
SOUTH BOSTON*  PTSUNNY   70  64  82 N5        29.98R
MARTINSVILLE   CLEAR     65  59  78 NW6       30.04R
ROANOKE        CLEAR     65  57  75 W3        30.05R
BLACKSBURG     CLEAR     58  58  99 CALM      30.12R
DUBLIN*          N/A     62  58  87 CALM      30.10S
MARION*        CLEAR     59  57  95 CALM      30.15R
HILLSVILLE*    CLEAR     61  56  85 N6        30.10R
RICHLANDS*     FAIR      61  59  93 CALM      30.13R
WISE*          CLEAR     59  59 100 CALM      30.15R
ABINGDON*      CLEAR     60  58  91 CALM      30.11R
$$

MDZ021>025-VAZ099-100-311200-
SOUTHERN MARYLAND AND THE DELMARVA PENINSULA

CITY           SKY/WX    TMP DP  RH WIND       PRES   REMARKS
PATUXENT RIVER PTCLDY    74  66  76 NW9       29.92R
BAY BRIDGE APT   N/A     75  63  64 N3        29.92R
LEONARDTOWN    CLEAR     66  64  94 CALM      29.95R
DOVER          CLEAR     69  65  87 NW2       29.89R
GEORGETOWN     CLEAR     72  68  87 CALM      29.91R
EASTON         CLEAR     72  66  83 CALM      29.95R
CAMBRIDGE      CLEAR     72  68  88 N3        29.91R
SALISBURY      CLEAR     73  69  87 N5        29.90R
OCEAN CITY     PTCLDY    73  68  84 N7        29.89R
WALLOPS ISLAND PTCLDY    75  72  90 N6        29.90R
ACCOMACK*      MOCLDY    75  75 100 N6        29.90R
$$

NCZ012>017-030>032-311200-
NORTH CENTRAL AND EASTERN NORTH CAROLINA

CITY           SKY/WX    TMP DP  RH WIND       PRES   REMARKS
ROANOKE RAPIDS FAIR      72  70  94 CALM      29.93R
RALEIGH        PTCLDY    73  63  70 VRB3      29.96R
ELIZABETH CITY LGT RAIN  75  73  93 N15       29.89S
AHOSKIE*       CLEAR     73  69  89 CALM      29.92R
EDENTON*         N/A     75  72  89 NE6       29.89S
CURRITUCK*     NOT AVBL
KILL DEVIL HLS MOCLDY    79  76  90 W3        29.87S
MANTEO         MOCLDY    78  76  94 CALM      29.88S
CAPE HATTERAS  CLEAR     78  75  90 CALM      29.87R
TARBORO*         N/A     76  73  89 N5        29.92R
GOLDSBORO      PTCLDY    78  75  91 N8        29.89R
WASHINGTON     MOCLDY    76  75  95 CALM      29.89S
GREENVILLE     MOCLDY    77  77 100 N6        29.92R
NEW BERN       MOCLDY   N/A N/A N/A CALM      29.90R
WILMINGTON     MOCLDY    77  75  93 CALM      29.89R
$$

VAZ048-311200-
ELSEWHERE

CITY           SKY/WX    TMP DP  RH WIND       PRES   REMARKS
HARRISBURG PA  PTCLDY    68  61  78 N3        29.92R
BALTIMORE      PTCLDY    66  63  90 W6        29.92R
ANNAPOLIS      CLEAR     74  65  73 VRB5      29.92R
ANDREWS AFB    CLEAR     69  62  78 NW5       29.93R
PHILADELPHIA   SUNNY     72  60  66 SW3       29.89S
HENDERSON NC   CLEAR     71  65  81 NW6       29.96R
GREENSBORO     PTCLDY    70  59  68 CALM      30.00R
ROCKY MOUNT    CLEAR     76  74  93 N7        29.93R FOG
$$

VAZ100-311200-
MARINE

STATION/POSITION TIME  TEMP    WIND        PRES    WAVE   SWELL
                       AIR SEA DIR/SP/G            HT/PER HT/PER
                 (UTC) (F)     (DEG/KT/KT) (MB)    (FT/S) (FT/S)
BRANDYWINE LGT   1000   79 76   10/ 18/ 20 1012.0R
CAPE MAY NJ      1000   77 78  360/  5/ 12 1011.6R
LEWES DE         1000   78 72   10/ 12/ 15 1011.7S
15NM E FENWICK I 1050   78 79  340/ 17/ 19 1011.6R   3/ 6   2/ 9
OCEAN-CITY-INLET 1000   77 80  360/  9/ 12 1010.9R
WACHAPREAGUE VA  1000   73 84   CALM  /  1 1012.1R
GOOSES REEF MD   1100   79 82  350/ 12/ 14 1014.0R
COVE POINT MD    1000   78     360/ 12/ 15 1013.1R
SOLOMONS ISLAND  1000      82                N/A
BISHOPS HEAD MD  1000   76 82  350/  5/  7 1011.3R
PINEY POINT MD   1000           10/ 11/ 12   N/A
POTOMAC MD       1100   77 83   10/  8/ 10 1011.8R   1
CAMBRIDGE MD     1000   77 83  340/  9/ 10 1011.5R
LEWISETTA VA     1000   78 83   10/  7/ 12 1012.3R
RAPPAHANNOCK LGT 1000          350/  3/  4 1012.6R
STINGRAY PT      1100   79 83  350/  6/  8 1012.9R   0
YORK RVR RNG VA  1000   78      40/  3/  4 1011.8R
YORKTOWN VA      1000   77 83   10/  5/  6 1011.9S
JAMESTOWN VA     1100   76 85  330/  4/  6   N/A
DOMINION TERM VA 1000   77      80/  8/ 10 1011.9F
KIPTOPEKE VA     1000      82  100/  5/  9   N/A
CHES BAY BRIDGE  1000   75 80   50/  8/ 10 1011.7F
CAPE HENRY VA    1000   74      60/  7/  8   N/A
CHESAPEAKE LGHT  1000   76      10/ 14/ 15 1012.6R
WILLOUBY STN VA  1000   76      70/  9/ 11 1012.9F
CAPE HENRY BUOY  1028      80                N/A     4/ 6
1ST LANDING BUOY 1100      80              1012.0R   2/ 4
CAPE CHARLES BUO 1026      74                N/A     3/ 9   2/ 9
OFFSHORE WE BUOY 1011      81                N/A     4/ 6   3/ 6
64NM E OF VA BCH 1050   81 81  230/ 10/ 10 1011.3R   4/ 6   3/ 6
DUCK PIER NC     1000   80 63  270/  6/  7 1010.8R
44100 DUCK FRF   1024      80                N/A     3/ 6
44056 DUCK FRF   1011      71                N/A     2/ 9
OREGON INLET NC  1000   81 83  290/  4/  5 1011.3R
HATTERAS NC      1000   79 82   80/  2/  2 1010.6F
DIAMOND SHLS NC  1050   82 85  330/  6/  8 1011.2R   4/ 9   3/ 9
CAPE LOOKOUT NC  1100   80     320/  8/ 10 1011.5R
$$



USA.gov is the U.S. government's official web portal to all federal, state and local government web resources and services.